Regional Weather Roundup
Issued by NWS Kansas City/Pleasant Hill, MO

Home | Current Version | Previous Version | Graphics & Text | Print | Product List | Glossary Off
Versions: 1 2 3 4 5 6 7 8 9 10 11 12 13 14 15 16 17 18 19 20 21 22 23 24 25 26 27 28 29 30 31 32 33 34 35 36 37 38 39 40 41 42 43 44 45 46 47 48 49 50

000
ASUS43 KEAX 200910
RWREAX

WEATHER ROUNDUP FOR EASTERN KANSAS AND NORTHWEST MISSOURI
NATIONAL WEATHER SERVICE KANSAS CITY/PLEASANT HILL MO
400 AM CDT WED AUG 20 2014

KSZ040-057-103>105-MOZ028-029-037-043-201000-
...KANSAS CITY METROPOLITAN AREA...

CITY           SKY/WX    TMP DP  RH WIND       PRES   REMARKS
K.C. INTL      PTCLDY    76  69  79 SW10      29.83S
K.C. DOWNTOWN  PTCLDY    83  69  62 SW10      29.82S
LEES SUMMIT    CLEAR     78  69  73 SW10      29.85S
OLATHE - IXD   PTCLDY    78  69  73 S13       29.85S
OLATHE - OJC   CLEAR     78  69  73 SW8       29.85R
LAWRENCE       PTCLDY    81  69  67 SW13      29.82F

$$

MOZ001>008-011>017-020>025-030>033-038>040-044>046-053-054-201000-
...NORTHERN AND CENTRAL MISSOURI...

CITY           SKY/WX    TMP DP  RH WIND       PRES   REMARKS
ST. JOSEPH     PTCLDY    73  70  90 S8        29.79F
MOSBY          SUNNY     72  72 100 CALM      29.82F
WHITEMAN AFB   CLEAR     77  63  63 SW10      29.85R
CLINTON        CLEAR     77  72  83 S5        29.87S
SEDALIA        CLEAR     77  70  79 SW10      29.86S
WARSAW         NOT AVBL
MARSHALL       PTCLDY    75  73  94 SW6       29.84F
CHILLICOTHE      N/A     74  72  93 CALM      29.81F
MOBERLY        PTCLDY    73  68  83 SE6       29.85F
KIRKSVILLE     PTCLDY    71  68  90 SE6       29.84F

$$

MOZ041-047>049-056>058-063>065-088>090-097-201000-
...EASTERN AND SOUTHERN MISSOURI...

CITY           SKY/WX    TMP DP  RH WIND       PRES   REMARKS
ST. LOUIS INTL CLEAR     75  71  87 CALM      29.86R
SPIRIT OF STL  CLEAR     69  68  96 CALM      29.84S
COLUMBIA       PTCLDY    73  70  90 S6        29.86S
JEFFERSON CITY PTCLDY    70  69  97 E3        29.85S
MEXICO         PTCLDY   N/A N/A N/A CALM      29.86S
ROLLA          PTCLDY    71  68  90 SW7       29.89R
LEBANON        CLEAR     77  70  78 SW9       29.93S
OSAGE BEACH    CLEAR     70  66  88 CALM      29.89R
SPRINGFIELD    CLEAR     74  70  87 S6        29.92R
BRANSON        CLEAR     75  70  83 SW5       29.95R
NEVADA         CLEAR     72  70  94 S5        29.89F
JOPLIN         CLEAR     77  70  79 S8        29.90S
WEST PLAINS    CLEAR     74  70  87 W6        29.94R

$$

IAZ060-094-KSZ022-034>040-054-083-096-NEZ052-066-093-201000-
...KANSAS...SOUTHEAST NEBRASKA AND IOWA...

CITY           SKY/WX    TMP DP  RH WIND       PRES   REMARKS
TOPEKA         PTCLDY    79  69  71 S10       29.82S
MANHATTAN      PTCLDY    79  68  69 SW13      29.80F
EMPORIA        CLEAR     74  68  81 S9        29.85S
CHANUTE        CLEAR     74  69  85 S7        29.87S
WICHITA        PTCLDY    74  67  78 S9        29.84F
OMAHA          CLOUDY    75  67  76 SE7       29.76F
LINCOLN        CLOUDY    74  69  85 S7        29.77S
FALLS CITY     CLOUDY    75  70  84 S9        29.77F
LAMONI         MOCLDY    72  67  84 SE6       29.81F
DES MOINES     MOCLDY    74  65  73 SE6       29.80F

$$



USA.gov is the U.S. government's official web portal to all federal, state and local government web resources and services.